DKY211 LEHC-LEHC

Flight info

Callsign DKY211
Flight time 1h 29m
Altitude 8500
Route VFR
Aircraft HDJT/L-SABDGRWY/H

Departure

Time 2026-05-04 17:23
Airport Huesca-Pirineos Airport (LEHC)

Arrival

Time 2026-05-04 18:52
Airport Huesca-Pirineos Airport (LEHC)
Time Latitude Longitude Altitude Speed Heading
2026-05-04 17:06 42.08229 -0.32078 1764 ft 0 kts 307°
2026-05-04 17:18 42.08230 -0.32083 1792 ft 3 kts 285°
2026-05-04 17:19 42.08068 -0.32173 1767 ft 10 kts 212°
2026-05-04 17:19 42.07843 -0.32191 1761 ft 22 kts 122°
2026-05-04 17:20 42.07671 -0.31833 1766 ft 27 kts 127°
2026-05-04 17:20 42.07384 -0.31251 1771 ft 46 kts 123°
2026-05-04 17:20 42.07224 -0.30916 1772 ft 33 kts 125°
2026-05-04 17:21 42.07120 -0.30630 1774 ft 0 kts 91°
2026-05-04 17:21 42.07120 -0.30625 1774 ft 3 kts 90°
2026-05-04 17:22 42.07094 -0.30582 1775 ft 8 kts 196°
2026-05-04 17:22 42.07105 -0.30672 1774 ft 13 kts 301°
2026-05-04 17:23 42.08014 -0.32530 2085 ft 149 kts 307°
2026-05-04 17:23 42.08619 -0.33732 2526 ft 164 kts 304°
2026-05-04 17:23 42.10127 -0.36437 3511 ft 196 kts 313°
2026-05-04 17:24 42.11064 -0.37858 3992 ft 209 kts 310°
2026-05-04 17:24 42.12439 -0.43070 6047 ft 217 kts 244°
2026-05-04 17:25 42.11382 -0.44510 6778 ft 223 kts 210°
2026-05-04 17:25 42.08361 -0.44057 8258 ft 240 kts 143°
2026-05-04 17:26 42.06940 -0.39929 8476 ft 254 kts 93°
2026-05-04 17:26 42.07398 -0.32829 8448 ft 254 kts 88°
2026-05-04 17:27 42.07344 -0.28072 8447 ft 254 kts 92°
2026-05-04 17:27 42.07017 -0.23347 8447 ft 254 kts 98°
2026-05-04 17:28 42.06936 -0.18609 8444 ft 254 kts 87°
2026-05-04 17:29 42.06802 -0.11479 8445 ft 254 kts 92°
2026-05-04 17:29 42.06621 -0.04352 8449 ft 254 kts 92°
2026-05-04 17:30 42.06437 0.02764 8435 ft 252 kts 92°
2026-05-04 17:31 42.06313 0.07497 8432 ft 260 kts 92°
2026-05-04 17:31 42.06107 0.15464 8428 ft 291 kts 92°
2026-05-04 17:32 42.05517 0.20777 8435 ft 288 kts 120°
2026-05-04 17:33 42.00535 0.23484 8444 ft 271 kts 203°
2026-05-04 17:33 41.98974 0.22128 8444 ft 267 kts 225°
2026-05-04 17:34 41.95295 0.16581 8441 ft 265 kts 231°
2026-05-04 17:34 41.94096 0.14700 8444 ft 265 kts 231°
2026-05-04 17:35 41.90512 0.09061 8445 ft 264 kts 231°
2026-05-04 17:35 41.88122 0.05295 8449 ft 265 kts 231°
2026-05-04 17:35 41.86935 0.03405 8443 ft 266 kts 230°
2026-05-04 17:36 41.85738 0.01499 8413 ft 266 kts 231°
2026-05-04 17:36 41.84552 -0.00392 8426 ft 265 kts 229°
2026-05-04 17:36 41.83292 -0.02207 8437 ft 266 kts 230°
2026-05-04 17:36 41.82080 -0.04074 8441 ft 265 kts 230°
2026-05-04 17:37 41.80879 -0.05946 8430 ft 264 kts 232°
2026-05-04 17:37 41.79676 -0.07811 8441 ft 265 kts 232°
2026-05-04 17:37 41.78480 -0.09689 8429 ft 264 kts 232°
2026-05-04 17:37 41.77288 -0.11563 8426 ft 264 kts 232°
2026-05-04 17:38 41.76094 -0.13423 8435 ft 263 kts 232°
2026-05-04 17:38 41.74896 -0.15277 8434 ft 263 kts 231°
2026-05-04 17:38 41.73700 -0.17123 8433 ft 263 kts 232°
2026-05-04 17:38 41.72441 -0.18901 8437 ft 264 kts 226°
2026-05-04 17:39 41.69630 -0.22071 8441 ft 264 kts 222°
2026-05-04 17:39 41.68205 -0.23616 8432 ft 265 kts 222°
2026-05-04 17:39 41.66781 -0.25180 8433 ft 265 kts 223°
2026-05-04 17:40 41.65325 -0.26683 8437 ft 265 kts 218°
2026-05-04 17:40 41.63779 -0.28045 8437 ft 266 kts 216°
2026-05-04 17:40 41.62218 -0.29361 8433 ft 265 kts 216°
2026-05-04 17:40 41.60649 -0.30671 8442 ft 267 kts 215°
2026-05-04 17:41 41.59072 -0.31990 8334 ft 267 kts 215°
2026-05-04 17:41 41.57489 -0.33281 8108 ft 266 kts 214°
2026-05-04 17:41 41.55892 -0.34520 7875 ft 266 kts 213°
2026-05-04 17:41 41.54257 -0.35667 7650 ft 265 kts 210°
2026-05-04 17:42 41.52587 -0.36717 7425 ft 266 kts 205°
2026-05-04 17:42 41.50813 -0.37446 7201 ft 267 kts 198°
2026-05-04 17:42 41.49010 -0.38049 6981 ft 267 kts 197°
2026-05-04 17:42 41.47278 -0.38706 6753 ft 250 kts 209°
2026-05-04 17:43 41.45983 -0.40088 6488 ft 234 kts 234°
2026-05-04 17:43 41.45145 -0.41924 6165 ft 231 kts 253°
2026-05-04 17:43 41.44873 -0.44030 5834 ft 230 kts 266°
2026-05-04 17:43 41.44750 -0.46117 5519 ft 229 kts 268°
2026-05-04 17:44 41.44782 -0.48240 5056 ft 229 kts 276°
2026-05-04 17:44 41.45041 -0.50329 4557 ft 228 kts 284°
2026-05-04 17:44 41.45551 -0.52324 4050 ft 227 kts 294°
2026-05-04 17:44 41.46267 -0.54196 3710 ft 223 kts 298°
2026-05-04 17:45 41.46982 -0.55963 3806 ft 212 kts 297°
2026-05-04 17:45 41.47683 -0.57715 3902 ft 216 kts 297°
2026-05-04 17:45 41.48384 -0.59471 3939 ft 218 kts 297°
2026-05-04 17:45 41.49102 -0.61271 3947 ft 216 kts 297°
2026-05-04 17:46 41.49779 -0.63053 3945 ft 215 kts 294°
2026-05-04 17:46 41.50379 -0.64903 3948 ft 219 kts 292°
2026-05-04 17:46 41.50947 -0.66784 3945 ft 219 kts 292°
2026-05-04 17:46 41.51599 -0.68619 3945 ft 219 kts 298°
2026-05-04 17:47 41.52236 -0.70119 3943 ft 217 kts 300°
2026-05-04 17:47 41.52999 -0.71852 3947 ft 216 kts 299°
2026-05-04 17:47 41.53744 -0.73599 3954 ft 218 kts 300°
2026-05-04 17:47 41.54503 -0.75317 3954 ft 209 kts 299°
2026-05-04 17:48 41.55215 -0.76989 3956 ft 209 kts 300°
2026-05-04 17:48 41.55948 -0.78652 3953 ft 203 kts 300°
2026-05-04 17:48 41.56633 -0.80258 3952 ft 197 kts 300°
2026-05-04 17:48 41.57332 -0.81845 3952 ft 200 kts 301°
2026-05-04 17:49 41.58021 -0.83458 3840 ft 200 kts 300°
2026-05-04 17:49 41.58720 -0.85053 3583 ft 198 kts 302°
2026-05-04 17:49 41.59400 -0.86636 3323 ft 195 kts 301°
2026-05-04 17:49 41.60064 -0.88165 3065 ft 183 kts 302°
2026-05-04 17:50 41.60678 -0.89576 2829 ft 168 kts 302°
2026-05-04 17:50 41.61241 -0.90882 2612 ft 157 kts 301°
2026-05-04 17:50 41.61767 -0.92101 2421 ft 144 kts 300°
2026-05-04 17:50 41.62238 -0.93192 2237 ft 128 kts 301°
2026-05-04 17:51 41.62664 -0.94176 2067 ft 118 kts 301°
2026-05-04 17:51 41.63064 -0.95101 1916 ft 114 kts 301°
2026-05-04 17:51 41.63458 -0.96017 1756 ft 112 kts 303°
2026-05-04 17:51 41.63847 -0.96913 1591 ft 113 kts 301°
2026-05-04 17:52 41.64254 -0.97852 1427 ft 121 kts 302°
2026-05-04 17:52 41.64684 -0.98841 1261 ft 124 kts 301°
2026-05-04 17:52 41.65121 -0.99836 1090 ft 125 kts 302°
2026-05-04 17:52 41.65539 -1.00868 926 ft 126 kts 300°
2026-05-04 17:53 41.66004 -1.01895 960 ft 138 kts 303°
2026-05-04 17:53 41.66537 -1.03100 1055 ft 162 kts 302°
2026-05-04 17:53 41.67170 -1.04540 1196 ft 194 kts 302°
2026-05-04 17:53 41.67867 -1.06215 1364 ft 221 kts 296°
2026-05-04 17:54 41.68376 -1.08168 1859 ft 228 kts 279°
2026-05-04 17:54 41.68297 -1.09602 2193 ft 242 kts 256°
2026-05-04 17:54 41.67407 -1.11616 2705 ft 266 kts 227°
2026-05-04 17:54 41.65769 -1.12913 3228 ft 287 kts 199°
2026-05-04 17:55 41.63730 -1.13102 3741 ft 305 kts 172°
2026-05-04 17:55 41.61812 -1.12099 4269 ft 281 kts 145°
2026-05-04 17:55 41.60546 -1.10367 4795 ft 242 kts 128°
2026-05-04 17:55 41.59649 -1.08676 5303 ft 204 kts 125°
2026-05-04 17:56 41.58921 -1.07230 5822 ft 179 kts 126°
2026-05-04 17:56 41.58202 -1.05780 6356 ft 195 kts 125°
2026-05-04 17:56 41.57428 -1.04200 6858 ft 211 kts 125°
2026-05-04 17:56 41.56601 -1.02510 6960 ft 219 kts 125°
2026-05-04 17:57 41.55773 -1.00816 6976 ft 217 kts 125°
2026-05-04 17:57 41.54827 -0.99270 6967 ft 213 kts 148°
2026-05-04 17:57 41.53520 -0.98417 6972 ft 208 kts 167°
2026-05-04 17:57 41.52137 -0.97867 6971 ft 206 kts 169°
2026-05-04 17:58 41.50746 -0.97333 6976 ft 206 kts 170°
2026-05-04 17:58 41.49369 -0.96809 6978 ft 206 kts 169°
2026-05-04 17:58 41.47987 -0.96283 6977 ft 206 kts 169°
2026-05-04 17:58 41.46605 -0.95757 6985 ft 207 kts 169°
2026-05-04 17:59 41.45235 -0.95236 6981 ft 207 kts 169°
2026-05-04 17:59 41.43852 -0.94709 6974 ft 207 kts 170°
2026-05-04 17:59 41.41081 -0.93654 6974 ft 207 kts 169°
2026-05-04 18:00 41.39693 -0.93126 6972 ft 208 kts 169°
2026-05-04 18:00 41.38283 -0.92591 6982 ft 208 kts 169°
2026-05-04 18:00 41.36909 -0.92070 6972 ft 208 kts 169°
2026-05-04 18:00 41.35515 -0.91538 6962 ft 209 kts 169°
2026-05-04 18:01 41.34170 -0.90811 6959 ft 213 kts 147°
2026-05-04 18:01 41.33244 -0.89264 6960 ft 217 kts 122°
2026-05-04 18:01 41.32532 -0.87479 6968 ft 219 kts 120°
2026-05-04 18:02 41.31106 -0.83887 6966 ft 219 kts 126°
2026-05-04 18:02 41.30018 -0.82568 6976 ft 210 kts 155°
2026-05-04 18:02 41.28723 -0.81665 6969 ft 211 kts 157°
2026-05-04 18:02 41.27442 -0.80710 6967 ft 211 kts 154°
2026-05-04 18:03 41.26170 -0.79737 6971 ft 210 kts 159°
2026-05-04 18:03 41.24805 -0.79413 6977 ft 195 kts 197°
2026-05-04 18:03 41.23669 -0.80250 6974 ft 183 kts 236°
2026-05-04 18:03 41.23274 -0.81624 6973 ft 179 kts 270°
2026-05-04 18:04 41.23628 -0.83043 6974 ft 181 kts 306°
2026-05-04 18:04 41.24638 -0.84085 6974 ft 188 kts 324°
2026-05-04 18:04 41.26981 -0.85681 6979 ft 189 kts 323°
2026-05-04 18:05 41.27886 -0.86883 6969 ft 184 kts 303°
2026-05-04 18:05 41.28773 -0.88115 6971 ft 186 kts 315°
2026-05-04 18:05 41.29830 -0.89128 6967 ft 189 kts 324°
2026-05-04 18:05 41.31055 -0.89811 6974 ft 194 kts 336°
2026-05-04 18:06 41.33641 -0.90835 6973 ft 196 kts 338°
2026-05-04 18:06 41.35055 -0.91380 6969 ft 227 kts 339°
2026-05-04 18:06 41.36642 -0.91985 6976 ft 244 kts 341°
2026-05-04 18:07 41.38305 -0.92451 6979 ft 246 kts 351°
2026-05-04 18:07 41.40022 -0.92224 6979 ft 251 kts
2026-05-04 18:07 41.41725 -0.91675 6980 ft 252 kts
2026-05-04 18:07 41.43430 -0.91084 6965 ft 254 kts 10°
2026-05-04 18:08 41.45127 -0.90436 6961 ft 254 kts 14°
2026-05-04 18:08 41.46763 -0.89523 6963 ft 256 kts 21°
2026-05-04 18:08 41.48355 -0.88452 6975 ft 256 kts 22°
2026-05-04 18:08 41.49944 -0.87348 6958 ft 257 kts 23°
2026-05-04 18:09 41.53059 -0.85011 6963 ft 258 kts 25°
2026-05-04 18:09 41.56205 -0.82768 6972 ft 254 kts 20°
2026-05-04 18:10 41.57823 -0.81852 6968 ft 252 kts 18°
2026-05-04 18:10 41.59484 -0.80948 6982 ft 266 kts 18°
2026-05-04 18:10 41.61221 -0.80008 6968 ft 269 kts 18°
2026-05-04 18:10 41.62954 -0.79075 6966 ft 268 kts 18°
2026-05-04 18:11 41.64725 -0.78361 6969 ft 264 kts
2026-05-04 18:11 41.66546 -0.78029 6969 ft 264 kts
2026-05-04 18:11 41.68377 -0.77910 6968 ft 262 kts 358°
2026-05-04 18:11 41.70198 -0.77856 6968 ft 262 kts 357°
2026-05-04 18:12 41.72021 -0.77811 6968 ft 262 kts 357°
2026-05-04 18:12 41.73847 -0.77772 6967 ft 262 kts 357°
2026-05-04 18:12 41.75666 -0.77823 6964 ft 261 kts 351°
2026-05-04 18:12 41.77426 -0.78172 6969 ft 259 kts 347°
2026-05-04 18:13 41.79192 -0.78635 6966 ft 258 kts 345°
2026-05-04 18:13 41.80940 -0.79182 6966 ft 257 kts 340°
2026-05-04 18:13 41.84316 -0.80760 6966 ft 257 kts 337°
2026-05-04 18:14 41.86001 -0.81553 6965 ft 257 kts 341°
2026-05-04 18:14 41.87743 -0.82138 6959 ft 258 kts 344°
2026-05-04 18:14 41.89505 -0.82632 6965 ft 259 kts 346°
2026-05-04 18:15 41.92998 -0.83777 6968 ft 260 kts 345°
2026-05-04 18:15 41.96516 -0.84003 6962 ft 264 kts
2026-05-04 18:15 41.98305 -0.83418 6962 ft 267 kts 17°
2026-05-04 18:16 42.00019 -0.82453 6964 ft 267 kts 23°
2026-05-04 18:16 42.01591 -0.81113 6962 ft 269 kts 36°
2026-05-04 18:16 42.03029 -0.79484 6963 ft 270 kts 38°
2026-05-04 18:17 42.05952 -0.76339 6959 ft 268 kts 27°
2026-05-04 18:17 42.07531 -0.74976 6954 ft 272 kts 39°
2026-05-04 18:17 42.09112 -0.70409 6956 ft 279 kts 83°
2026-05-04 18:18 42.09202 -0.67801 6954 ft 279 kts 90°
2026-05-04 18:18 42.09090 -0.65192 6955 ft 280 kts 95°
2026-05-04 18:18 42.08926 -0.62583 6955 ft 279 kts 94°
2026-05-04 18:18 42.08791 -0.59975 6952 ft 279 kts 93°
2026-05-04 18:19 42.08528 -0.54761 6949 ft 279 kts 94°
2026-05-04 18:19 42.08390 -0.52149 6767 ft 279 kts 94°
2026-05-04 18:19 42.08255 -0.49553 6483 ft 277 kts 93°
2026-05-04 18:20 42.08121 -0.46978 6263 ft 275 kts 93°
2026-05-04 18:20 42.07986 -0.44411 6032 ft 274 kts 93°
2026-05-04 18:20 42.07854 -0.41862 5797 ft 272 kts 93°
2026-05-04 18:20 42.07725 -0.39370 5568 ft 260 kts 93°
2026-05-04 18:21 42.07601 -0.37004 5335 ft 247 kts 93°
2026-05-04 18:21 42.07482 -0.34742 5115 ft 237 kts 93°
2026-05-04 18:21 42.07365 -0.32613 5099 ft 219 kts 93°
2026-05-04 18:21 42.07165 -0.30647 5086 ft 207 kts 110°
2026-05-04 18:22 42.06322 -0.29196 5099 ft 200 kts 150°
2026-05-04 18:22 42.05003 -0.28759 5102 ft 197 kts 189°
2026-05-04 18:22 42.03801 -0.29518 5107 ft 192 kts 229°
2026-05-04 18:22 42.03257 -0.31084 5112 ft 187 kts 266°
2026-05-04 18:23 42.03265 -0.32832 5110 ft 187 kts 274°
2026-05-04 18:23 42.03336 -0.34577 5109 ft 187 kts 274°
2026-05-04 18:23 42.03407 -0.36323 5109 ft 187 kts 274°
2026-05-04 18:23 42.03480 -0.38067 5108 ft 187 kts 274°
2026-05-04 18:24 42.03553 -0.39811 5106 ft 187 kts 274°
2026-05-04 18:24 42.03697 -0.41540 5107 ft 186 kts 290°
2026-05-04 18:24 42.04490 -0.42867 5103 ft 186 kts 329°
2026-05-04 18:24 42.05757 -0.43167 5108 ft 192 kts
2026-05-04 18:25 42.06928 -0.42306 5107 ft 197 kts 40°
2026-05-04 18:25 42.07709 -0.40794 5110 ft 201 kts 71°
2026-05-04 18:25 42.07797 -0.38928 5102 ft 203 kts 98°
2026-05-04 18:25 42.07605 -0.37040 5110 ft 204 kts 94°
2026-05-04 18:26 42.07508 -0.35138 5110 ft 203 kts 93°
2026-05-04 18:26 42.07390 -0.33246 5110 ft 203 kts 94°
2026-05-04 18:26 42.06984 -0.31450 5103 ft 203 kts 124°
2026-05-04 18:26 42.06078 -0.29982 4988 ft 205 kts 133°
2026-05-04 18:27 42.05076 -0.28621 4670 ft 205 kts 137°
2026-05-04 18:27 42.04085 -0.27247 4345 ft 205 kts 131°
2026-05-04 18:27 42.03138 -0.25820 4019 ft 204 kts 133°
2026-05-04 18:27 42.02175 -0.24432 3802 ft 199 kts 134°
2026-05-04 18:28 42.01240 -0.23097 3806 ft 196 kts 134°
2026-05-04 18:28 42.00303 -0.21750 3813 ft 197 kts 133°
2026-05-04 18:28 41.99368 -0.20400 3806 ft 197 kts 133°
2026-05-04 18:28 41.98432 -0.19053 3806 ft 199 kts 134°
2026-05-04 18:29 41.97489 -0.17699 3805 ft 202 kts 134°
2026-05-04 18:29 41.96533 -0.16324 3812 ft 201 kts 134°
2026-05-04 18:29 41.95584 -0.14957 3804 ft 199 kts 133°
2026-05-04 18:29 41.94999 -0.13281 3792 ft 198 kts 94°
2026-05-04 18:30 41.96328 -0.10489 3792 ft 187 kts 13°
2026-05-04 18:30 41.97577 -0.10577 3789 ft 181 kts 334°
2026-05-04 18:30 41.98647 -0.11487 3798 ft 180 kts 321°
2026-05-04 18:31 41.99574 -0.12637 3749 ft 184 kts 309°
2026-05-04 18:31 42.00253 -0.14057 3585 ft 180 kts 300°
2026-05-04 18:31 42.00844 -0.15489 3411 ft 170 kts 298°
2026-05-04 18:31 42.01389 -0.16853 3233 ft 162 kts 297°
2026-05-04 18:32 42.01896 -0.18133 3196 ft 148 kts 297°
2026-05-04 18:32 42.02362 -0.19309 3187 ft 139 kts 298°
2026-05-04 18:32 42.02815 -0.20456 3193 ft 134 kts 298°
2026-05-04 18:32 42.03243 -0.21537 3186 ft 132 kts 298°
2026-05-04 18:33 42.03678 -0.22631 3123 ft 132 kts 298°
2026-05-04 18:33 42.04108 -0.23720 2913 ft 131 kts 297°
2026-05-04 18:33 42.04524 -0.24771 2703 ft 123 kts 297°
2026-05-04 18:33 42.04919 -0.25771 2481 ft 121 kts 297°
2026-05-04 18:34 42.05319 -0.26781 2303 ft 123 kts 298°
2026-05-04 18:34 42.05592 -0.27473 2295 ft 124 kts 299°
2026-05-04 18:34 42.06008 -0.28497 2294 ft 125 kts 300°
2026-05-04 18:34 42.06426 -0.29514 2384 ft 125 kts 299°
2026-05-04 18:35 42.06872 -0.30604 2563 ft 140 kts 298°
2026-05-04 18:35 42.07395 -0.31884 2768 ft 174 kts 298°
2026-05-04 18:35 42.08030 -0.33438 2978 ft 202 kts 298°
2026-05-04 18:35 42.08723 -0.35134 3182 ft 208 kts 298°
2026-05-04 18:36 42.09609 -0.36641 3374 ft 208 kts 323°
2026-05-04 18:36 42.10846 -0.37667 3564 ft 209 kts 323°
2026-05-04 18:36 42.11712 -0.39184 3754 ft 208 kts 288°
2026-05-04 18:36 42.11723 -0.41107 3943 ft 210 kts 252°
2026-05-04 18:37 42.10879 -0.42670 4132 ft 215 kts 217°
2026-05-04 18:37 42.09464 -0.43303 4328 ft 220 kts 181°
2026-05-04 18:37 42.08007 -0.42723 4519 ft 224 kts 146°
2026-05-04 18:37 42.07032 -0.41115 4714 ft 225 kts 110°
2026-05-04 18:38 42.06835 -0.39047 4903 ft 225 kts 84°
2026-05-04 18:38 42.07076 -0.36971 5086 ft 221 kts 78°
2026-05-04 18:38 42.07383 -0.35001 5101 ft 211 kts 74°
2026-05-04 18:38 42.07630 -0.33064 5107 ft 212 kts 93°
2026-05-04 18:39 42.07358 -0.31106 5109 ft 214 kts 112°
2026-05-04 18:39 42.06445 -0.29576 5107 ft 212 kts 149°
2026-05-04 18:39 42.05055 -0.29074 5107 ft 208 kts 187°
2026-05-04 18:39 42.03746 -0.29774 5107 ft 203 kts 224°
2026-05-04 18:40 42.03046 -0.31359 5105 ft 199 kts 261°
2026-05-04 18:40 42.02987 -0.33209 5109 ft 198 kts 273°
2026-05-04 18:40 42.03055 -0.35060 5108 ft 198 kts 274°
2026-05-04 18:40 42.03129 -0.36911 5107 ft 198 kts 274°
2026-05-04 18:41 42.03205 -0.38758 5109 ft 198 kts 274°
2026-05-04 18:41 42.03394 -0.40589 5108 ft 197 kts 291°
2026-05-04 18:41 42.04232 -0.42004 5111 ft 198 kts 328°
2026-05-04 18:41 42.05560 -0.42405 5109 ft 201 kts
2026-05-04 18:42 42.06823 -0.41608 5112 ft 207 kts 41°
2026-05-04 18:42 42.07523 -0.39924 5109 ft 211 kts 76°
2026-05-04 18:42 42.07637 -0.37948 5111 ft 213 kts 91°
2026-05-04 18:42 42.07551 -0.35957 5109 ft 213 kts 92°
2026-05-04 18:43 42.07449 -0.33963 5107 ft 213 kts 93°
2026-05-04 18:43 42.07346 -0.31975 5105 ft 213 kts 93°
2026-05-04 18:43 42.06905 -0.30099 5107 ft 213 kts 124°
2026-05-04 18:43 42.05935 -0.28599 5063 ft 214 kts 141°
2026-05-04 18:44 42.04724 -0.27480 4947 ft 207 kts 149°
2026-05-04 18:44 42.03909 -0.26799 4873 ft 202 kts 149°
2026-05-04 18:44 42.02554 -0.25164 4701 ft 199 kts 127°
2026-05-04 18:44 42.01669 -0.23722 4575 ft 200 kts 132°
2026-05-04 18:45 42.00729 -0.22359 4451 ft 198 kts 133°
2026-05-04 18:45 41.99788 -0.21004 4325 ft 198 kts 133°
2026-05-04 18:45 41.98848 -0.19651 4147 ft 197 kts 133°
2026-05-04 18:45 41.97904 -0.18296 3970 ft 201 kts 134°
2026-05-04 18:46 41.96951 -0.16925 3809 ft 200 kts 134°
2026-05-04 18:46 41.96005 -0.15564 3804 ft 200 kts 134°
2026-05-04 18:46 41.95279 -0.13996 3793 ft 200 kts 103°
2026-05-04 18:46 41.95393 -0.12189 3805 ft 196 kts 63°
2026-05-04 18:47 41.96293 -0.10919 3792 ft 183 kts 22°
2026-05-04 18:47 41.97442 -0.10775 3789 ft 163 kts 340°
2026-05-04 18:47 41.98448 -0.11429 3794 ft 161 kts 327°
2026-05-04 18:47 41.99348 -0.12349 3618 ft 164 kts 316°
2026-05-04 18:48 42.00029 -0.13570 3452 ft 164 kts 300°
2026-05-04 18:48 42.00595 -0.14894 3283 ft 163 kts 299°
2026-05-04 18:48 42.01136 -0.16222 3207 ft 161 kts 298°
2026-05-04 18:48 42.01667 -0.17554 3210 ft 160 kts 297°
2026-05-04 18:49 42.02171 -0.18831 3203 ft 150 kts 297°
2026-05-04 18:49 42.02649 -0.20041 3199 ft 139 kts 298°
2026-05-04 18:49 42.03081 -0.21134 3187 ft 130 kts 298°
2026-05-04 18:49 42.03510 -0.22216 3151 ft 132 kts 297°
2026-05-04 18:50 42.03933 -0.23281 2965 ft 130 kts 297°
2026-05-04 18:50 42.04353 -0.24341 2787 ft 124 kts 297°
2026-05-04 18:50 42.04745 -0.25332 2594 ft 117 kts 297°
2026-05-04 18:50 42.05123 -0.26288 2403 ft 119 kts 296°
2026-05-04 18:51 42.05509 -0.27266 2292 ft 113 kts 297°
2026-05-04 18:51 42.05901 -0.28175 2202 ft 112 kts 302°
2026-05-04 18:51 42.06346 -0.29097 2089 ft 121 kts 302°
2026-05-04 18:51 42.06811 -0.30056 1909 ft 122 kts 302°
2026-05-04 18:52 42.07247 -0.30968 1770 ft 104 kts 303°
2026-05-04 18:52 42.07565 -0.31630 1768 ft 66 kts 304°
2026-05-04 18:52 42.07725 -0.31964 1765 ft 29 kts 299°
2026-05-04 18:52 42.07806 -0.32142 1763 ft 18 kts 303°
2026-05-04 18:53 42.07864 -0.32247 1761 ft 11 kts 315°
2026-05-04 18:53 42.07918 -0.32289 1762 ft 8 kts
2026-05-04 18:53 42.07966 -0.32260 1765 ft 9 kts 30°
2026-05-04 18:53 42.08043 -0.32195 1765 ft 14 kts 33°
2026-05-04 18:54 42.08120 -0.32142 1764 ft 11 kts 354°
2026-05-04 18:54 42.08183 -0.32159 1767 ft 7 kts 347°
2026-05-04 18:54 42.08196 -0.32170 1766 ft 0 kts 282°